Regional Weather Roundup
Issued by NWS

Home | Current Version | Previous Version | Text Only | Print | Product List | Glossary Off
Versions: 1 2 3 4 5 6 7 8 9 10 11 12 13 14 15 16 17 18 19 20 21 22 23 24 25 26 27

000
ASUS45 KPSR 191410
RWRAZ

ARIZONA HOURLY REGIONAL WEATHER ROUNDUP
NATIONAL WEATHER SERVICE PHOENIX AZ
700 AM MST SAT AUG 19 2017

NOTE: FAIR INDICATES FEW OR NO CLOUDS BELOW 12,000 FEET WITH NO
SIGNIFICANT WEATHER AND/OR OBSTRUCTIONS TO VISIBILITY.

AZZ001>003-036-191500-
NORTHWEST ARIZONA

CITY           SKY/WX    TMP DP  RH WIND       PRES   REMARKS
BULLHEAD CITY  SUNNY     81  37  21 CALM      29.85R
KINGMAN        SUNNY     72  39  30 SE7       30.05R
$$

AZZ004>008-015-016-018-191500-
NORTH CENTRAL ARIZONA

CITY           SKY/WX    TMP DP  RH WIND       PRES   REMARKS
GRAND CANYON   SUNNY     51  35  54 CALM      30.29R
WILLIAMS       SUNNY     52  37  58 S7        30.30R
PRESCOTT       SUNNY     62  41  46 S9        30.19R
FLAGSTAFF      PTSUNNY   58  39  49 CALM      30.32R
PAYSON           N/A     63  36  36 CALM      30.20R
PAGE           SUNNY     78  39  24 SE3       30.08R
$$

AZZ009>014-017-191500-
NORTHEAST ARIZONA

CITY           SKY/WX    TMP DP  RH WIND       PRES   REMARKS
WINSLOW        SUNNY     63  36  36 E5        30.18R
SAINT JOHNS    MOSUNNY   65  40  39 S10       30.22S
WINDOW ROCK    MOSUNNY   55  32  41 CALM      30.29R
SHOW LOW       MOSUNNY   63  41  45 CALM      30.28R
$$

AZZ540-542>544-546-548-191500-
GREATER PHOENIX AREA

CITY           SKY/WX    TMP DP  RH WIND       PRES   REMARKS
PHOENIX        MOSUNNY   83  46  27 E7        29.90R
BUCKEYE        MOSUNNY   81  48  32 NW3       29.90R
GLENDALE       MOSUNNY   81  54  39 CALM      29.92
LUKE AFB       SUNNY     80  49  34 N3        29.90R
DEER VALLEY    SUNNY     80  38  22 CALM      29.92R
SCOTTSDALE     SUNNY     79  49  34 CALM      29.94R
MESA-FALCON    MOSUNNY   81  43  26 NE6       29.94R
MESA-GATEWAY   MOSUNNY   75  52  43 SE7       29.94R
CHANDLER       SUNNY     81  54  39 S6        29.92R
$$

AZZ539-553-191500-
SOUTHWEST MARICOPA COUNTY AND PINAL COUNTY

CITY           SKY/WX    TMP DP  RH WIND       PRES   REMARKS
CASA GRANDE    SUNNY     79  55  43 CALM      29.95R
GILA BEND      CLOUDY    84  49  29 S6        29.88R
$$

AZZ503-504-507>509-191500-
SOUTHEAST ARIZONA

CITY           SKY/WX    TMP DP  RH WIND       PRES   REMARKS
TUCSON         SUNNY     73  52  46 W3        30.04
DAVIS-MONTHAN  SUNNY     75  53  44 S5        30.03R
RYAN FIELD     SUNNY     72  48  43 E6        30.04R
NOGALES        CLOUDY    68  61  78 NE7       30.12F
SIERRA VISTA   CLOUDY    73  59  61 NW10      30.16R
DOUGLAS        CLOUDY    73  66  78 VRB5      30.11R
SAFFORD        PTSUNNY   68  49  50 NW5       30.04R
$$

AZZ532-191500-
SOUTHWEST ARIZONA

CITY           SKY/WX    TMP DP  RH WIND       PRES   REMARKS
YUMA           SUNNY     83  73  72 S14       29.84R
$$

CAZ041-043-047-048-061-525>527-560>570-191500-
SOUTHERN CALIFORNIA

CITY           SKY/WX    TMP DP  RH WIND       PRES   REMARKS
DOWNTOWN L.A.  CLOUDY    68  60  75 CALM      29.96R
L.A. AIRPORT   MOCLDY    67  62  84 SW5       29.97R
SAN DIEGO      CLOUDY    68  61  78 W3        29.98R
BURBANK        CLOUDY    63  59  87 S5        29.97R
ONTARIO        MOCLDY    63  61  93 W5        29.98R FOG
RIVERSIDE      CLEAR     63  62  97 W3        29.98R FOG
PALM SPRINGS   CLEAR     80  61  52 VRB3      29.85R
EL CENTRO NAS  CLEAR     76  48  37 CALM      29.82R
IMPERIAL       CLEAR     80  63  55 S3        29.80R
BLYTHE         SUNNY     80  50  34 NW6       29.84R
NEEDLES        SUNNY     85  37  18 N3        29.86R
$$

NVZ020-UTZ003-191500-
SOUTHERN NEVADA-UTAH

CITY           SKY/WX    TMP DP  RH WIND       PRES   REMARKS
LAS VEGAS      MOSUNNY   82  40  22 W3        29.93R
SALT LAKE CITY MOSUNNY   70  44  39 SE12      30.06S
$$

NMZ009-TXZ055-191500-
NEW MEXICO-WEST TEXAS

CITY           SKY/WX    TMP DP  RH WIND       PRES   REMARKS
ALBUQUERQUE    CLOUDY    71  51  49 SE5       30.21R
EL PASO        PTSUNNY   73  63  70 SE6       30.14R
$$


........................KEY........................
SKY/WX - SKY CONDITION/WEATHER
TMP    - TEMPERATURE IN FAHRENHEIT
DP     - DEW POINT IN FAHRENHEIT
RH     - RELATIVE HUMIDITY IN PERCENT
WIND   - DIRECTION AND SPEED IN MILES PER HOUR (MPH)
VRB    - VARIABLE WIND DIRECTION
PRES   - MEAN SEA LEVEL PRESSURE IN INCHES OF MERCURY
         F - FALLING PRESSURE   R - RISING PRESSURE
         S - STEADY PRESSURE
VSB    - VISIBILITY IN MILES
HX     - HEAT INDEX IN FAHRENHEIT
WCI    - WIND CHILL INDEX IN FAHRENHEIT
TC     - TEMPERATURE IN CELSIUS WHICH IS ALSO KNOWN AS
         TEMPERATURE IN CENTIGRADE
AFB    - AIR FORCE BASE
         LUKE AFB IS LUKE AIR FORCE BASE
         DAVIS-MONTHAN IS DAVIS-MONTHAN AIR FORCE BASE
NAS    - NAVAL AIR STATION
         EL CENTRO NAS IS EL CENTRO NAVAL AIR STATION
N/A    - NOT AVAILABLE





USA.gov is the U.S. government's official web portal to all federal, state and local government web resources and services.